Zurück zum Katalog

COSMOS 1266

AktivNavigationLEO
NORAD 12409·PAYLOAD·🇷🇺 Russia

Gestartet Apr 21, 1981 von Baikonur Cosmodrome

Loading…

Nächste Überflüge (nächste 24 Stunden)

TLE

AktuellSource: Space-Track

Epoche: Sep 13, 2026, 22:13 UTC

1 12409U 81037A   26256.92631889 -.00000085  00000-0  57857-5 0  9993
2 12409  64.7606  79.1481 0050185 255.2901 104.2595 13.90619204305021

Verfolge COSMOS 1266 in Echtzeit mit AllMySat

Download on the App Store